Weather History for KBFM - October, 2012

Change the Weather History Date:

Thursday, October 11, 2012

  Actual Average Record
Temperature  
Mean Temperature 73 °F -  
Max Temperature 84 °F 78 °F 87 °F (1997)
Min Temperature 62 °F 59 °F 45 °F (2000)
Cooling Degree Days 8    
Growing Degree Days 23 (Base 50)    
Moisture  
Dew Point 62 °F    
Average Humidity 75    
Maximum Humidity 93    
Minimum Humidity 46    
Precipitation  
Precipitation 0.00 in - - ()
Sea Level Pressure  
Sea Level Pressure 30.21 in    
Wind  
Wind Speed 2 mph (NNE)    
Max Wind Speed 7 mph    
Max Gust Speed -    
Visibility 9 miles    
Events      
Averages and records for this station are not official NWS values.
T = Trace of Precipitation, MM = Missing Value Source: NWS Daily Summary

Daily Weather History Graph

Daily Weather History Graph

Search for Another Location

Airport or City:

Trip Planner

Search our weather history database for the weather conditions in past years. The results will help you decide how hot, cold, wet, or windy it might be!

Date:

Astronomy

Oct. 11, 2012 Rise Set
Actual Time 6:52 AM CDT 6:24 PM CDT
Civil Twilight 6:28 AM CDT 6:49 PM CDT
Nautical Twilight 6:00 AM CDT 7:16 PM CDT
Astronomical Twilight 5:32 AM CDT 7:44 PM CDT
Moon 2:46 AM CDT (10/11) 3:47 PM CDT (10/11)
Length of Visible Light 12h 20m
Length of Day
11h 32m
Waning Crescent, 18% of the Moon is Illuminated
Oct 11
Waning Crescent
Oct 15
New
Oct 21
First Quarter
Oct 29
Full
Nov 6
Last Quarter

Hourly Weather History & Observations

Time (CDT) Temp. Heat Index Dew Point Humidity Pressure Visibility Wind Dir Wind Speed Gust Speed Precip Events Conditions
12:53 AM 63.0 °F - 61.0 °F 93% 30.17 in 6.0 mi Calm Calm - N/A   Clear
1:53 AM 63.0 °F - 61.0 °F 93% 30.17 in 6.0 mi Calm Calm - N/A   Clear
2:53 AM 64.9 °F - 61.0 °F 87% 30.17 in 10.0 mi NW 3.5 mph - N/A   Clear
3:53 AM 64.0 °F - 61.0 °F 90% 30.17 in 10.0 mi Calm Calm - N/A   Clear
4:53 AM 64.0 °F - 61.0 °F 90% 30.18 in 7.0 mi NW 4.6 mph - N/A   Clear
5:53 AM 62.1 °F - 60.1 °F 93% 30.20 in 7.0 mi NNW 5.8 mph - N/A   Clear
6:53 AM 62.1 °F - 60.1 °F 93% 30.21 in 6.0 mi NW 3.5 mph - N/A   Clear
7:53 AM 64.9 °F - 63.0 °F 93% 30.23 in 7.0 mi Calm Calm - N/A   Clear
8:53 AM 70.0 °F - 63.0 °F 78% 30.24 in 10.0 mi NNE 4.6 mph - N/A   Clear
9:53 AM 72.0 °F - 64.0 °F 76% 30.26 in 10.0 mi NNE 5.8 mph - N/A   Clear
10:53 AM 75.9 °F - 63.0 °F 64% 30.25 in 10.0 mi NNE 4.6 mph - N/A   Clear
11:19 AM 78.8 °F - 62.6 °F 57% 30.26 in 10.0 mi NE 4.6 mph - N/A   Clear
11:27 AM 78.8 °F - 62.6 °F 57% 30.25 in 10.0 mi NE 4.6 mph - N/A   Clear
11:53 AM 80.1 °F 81.1 °F 61.0 °F 52% 30.25 in 10.0 mi East 3.5 mph - N/A   Clear
12:53 PM 82.0 °F 82.7 °F 61.0 °F 49% 30.23 in 10.0 mi East 4.6 mph - N/A   Clear
1:53 PM 82.0 °F 82.4 °F 60.1 °F 47% 30.19 in 10.0 mi NE 3.5 mph - N/A   Partly Cloudy
2:53 PM 82.9 °F 83.3 °F 61.0 °F 47% 30.19 in 10.0 mi Calm Calm - N/A   Partly Cloudy
3:53 PM 84.0 °F 84.4 °F 61.0 °F 46% 30.18 in 10.0 mi East 3.5 mph - N/A   Partly Cloudy
5:53 PM 77.0 °F - 64.0 °F 64% 30.19 in 10.0 mi South 6.9 mph - N/A   Partly Cloudy
6:53 PM 73.0 °F - 64.0 °F 73% 30.19 in 10.0 mi SSW 4.6 mph - N/A   Clear
8:53 PM 66.9 °F - 63.0 °F 87% 30.22 in 10.0 mi Calm Calm - N/A   Clear
9:53 PM 64.9 °F - 63.0 °F 93% 30.23 in 10.0 mi Calm Calm - N/A   Clear
10:53 PM 66.0 °F - 64.0 °F 93% 30.24 in 9.0 mi Calm Calm - N/A   Clear
11:53 PM 66.0 °F - 63.0 °F 90% 30.23 in 10.0 mi NW 3.5 mph - N/A   Clear